GRBBeta
1 60237U 24128C   26255.14709039  .00001946  00000-0  14212-3 0  9991
2 60237  61.9882 271.0415 0027965 153.7625 206.4892 15.07159723119374
Curium One
1 60242U 24128H   26255.13957347  .00004472  00000-0  25834-3 0  9992
2 60242  61.9763 257.5381 0026921 148.9766 211.2927 15.13589714119616
ROBUSTA-3A
1 60243U 24128J   26255.28703820  .00003706  00000-0  22149-3 0  9999
2 60243  61.9844 259.9815 0028922 145.9027 214.3935 15.12690796119597
CatSat
1 60246U 24125J   26255.13121642  .00090493  00000-0  71286-3 0  9994
2 60246  97.1953 109.4669 0014978 207.9356 152.1104 15.71025515120986
AO-123
1 61781U 24199AY  26255.25169970  .00005902  00000-0  16588-3 0  9994
2 61781  97.2850 123.1433 0013447   4.1365 355.9988 15.36809081147292
LASARsat
1 62391U 24247Q   26255.03457442  .00034352  00000-0  56378-3 0  9998
2 62391  44.9719 132.2111 0008734 184.2264 175.8556 15.51841192 96781
CroCube
1 62394U 24247T   26254.06680705  .00040936  00000-0  60575-3 0  9992
2 62394  44.9695 133.3082 0009251 188.0193 172.0553 15.54622235 96687
JINJUSat 1B
1 63210U 25052A   26255.18551342  .00012724  00000-0  36501-3 0  9999
2 63210  97.3873 152.1575 0004909 114.8911 245.2843 15.35999928 83441
NUSHSAT 1
1 63211U 25052B   26254.68017314  .00018428  00000-0  47628-3 0  9999
2 63211  97.3854 152.5564 0004588 116.8658 243.3057 15.39153642 83430
TEVEL2-4
1 63213U 25052D   26255.14951009  .00014383  00000-0  39356-3 0  9996
2 63213  97.3770 151.8048 0003933 124.5110 235.6506 15.37448770 83463
TEVEL2-5
1 63214U 25052E   26254.98583850  .00015550  00000-0  42837-3 0  9998
2 63214  97.3768 151.5610 0003822 125.8478 234.3122 15.37221653 83437
TEVEL2-6
1 63215U 25052F   26254.67462695  .00015932  00000-0  43938-3 0  9995
2 63215  97.3769 151.2330 0003707 126.4618 233.6969 15.37182525 83389
TEVEL2-1
1 63217U 25052H   26254.67147977  .00015466  00000-0  43546-3 0  9997
2 63217  97.3749 150.7447 0003533 138.3296 221.8218 15.36542255 83366
TEVEL2-3
1 63218U 25052J   26254.66240371  .00015543  00000-0  43659-3 0  9990
2 63218  97.3752 150.7708 0003260 134.6279 225.5231 15.36618213 83362
TEVEL2-2
1 63219U 25052K   26255.12698359  .00015625  00000-0  43954-3 0  9995
2 63219  97.3748 151.2053 0003481 137.3458 222.8057 15.36569329 83438
TEVEL2-9
1 63237U 25052AD  26255.15767609  .00012169  00000-0  36784-3 0  9996
2 63237  97.3805 150.4081 0005847 170.5731 189.5622 15.34354133 83356
TEVEL2-7
1 63238U 25052AE  26255.15190597  .00011684  00000-0  35737-3 0  9991
2 63238  97.3805 150.2780 0005811 172.2852 187.8481 15.33991759 83348
TEVEL2-8
1 63239U 25052AF  26255.16089206  .00011522  00000-0  35256-3 0  9994
2 63239  97.3813 150.2614 0005802 172.1368 187.9967 15.33981526 83346
SPIRONE
1 66657U 25274H   26254.73822042  .00001572  00000-0  15320-3 0  9996
2 66657  97.7476 182.8060 0013617  86.4852 273.7925 14.93832365 43149
K-HERO
1 66660U 25274L   26255.25511793  .00001036  00000-0  10177-3 0  9996
2 66660  97.7485 183.5398 0015470  88.5637 271.7355 14.94229353 43231
SNUGLITE-III DURI
1 66661U 25274M   26254.77279573  .00001174  00000-0  11455-3 0  9993
2 66661  97.7482 183.0842 0016112  90.8361 269.4706 14.94238694 43166
SAKHACUBE-CHOLBON
1 67290U 25313AU  26255.13273108  .00006542  00000-0  25475-3 0  9996
2 67290  97.3869 329.1338 0010058  55.8883 304.3309 15.26278635 39232
RS95S (QMR-KWT-2)
1 67291U 25313AV  26255.15360620  .00011289  00000-0  41111-3 0  9994
2 67291  97.3867 329.5528 0009337  54.0288 306.1816 15.28332596 39269
Ten-Koh2
1 68261U 25241B   26255.01256329  .00003930  00000-0  16945-3 0  9998
2 68261  51.6612 266.0882 0008064  71.5071 288.6783 15.24844660 28155
JACK-002
1 68417U 26067B   26254.86880925  .00004874  00000-0  22733-3 0  9995
2 68417  97.4660 212.4870 0002175  32.8138 327.3232 15.20326061 25111
DISCO 2
1 68431U 26067R   26254.83600031  .00006638  00000-0  30930-3 0  9994
2 68431  97.4692 212.4539 0003968  70.6271 289.5393 15.20221048 25108
HADES-SA (SpinnyONE)
1 68446U 26067AG  26254.83135609  .00015784  00000-0  69815-3 0  9990
2 68446  97.4482 212.0351 0008495 121.3119 238.8949 15.21736708 25091
PARUS-6U1
1 68456U 26067AS  26255.13872819  .00003982  00000-0  19737-3 0  9991
2 68456  97.4646 212.2555 0007270 113.4155 246.7844 15.18303564 25126
SAL-E
1 68458U 26067AU  26255.30908575  .00005439  00000-0  26419-3 0  9995
2 68458  97.4570 212.3249 0007395 120.2650 239.9317 15.18845387 25155
FSI-SAT 2
1 68792U 26088A   26254.92839520  .00002883  00000-0  19402-3 0  9993
2 68792  97.5191  42.1090 0014654 164.8208 195.3462 15.07420101 21353
OrigamiSat 2
1 68795U 26088D   26254.39797262  .00008933  00000-0  54491-3 0  9992
2 68795  97.5178  42.0450 0015531 139.5450 220.6938 15.10462289 21305
ARICA 2
1 68796U 26088E   26255.17693864  .00003097  00000-0  19922-3 0  9999
2 68796  97.5180  42.6796 0016395 136.9238 223.3278 15.09016417 21417
WASEDA-SAT-ZERO-II
1 68797U 26088F   26255.21931401  .00004893  00000-0  30844-3 0  9998
2 68797  97.5180  42.7702 0016187 136.3115 223.9399 15.09486102 21426
MANGARO-II-Piscus
1 68798U 26088G   26254.94554179  .00002974  00000-0  18966-3 0  9990
2 68798  97.5195  42.5422 0019816 140.4801 219.7877 15.09312498 21385
CO-128
1 69912U 26156AV  26255.19014338  .00001100  00000-0  11706-3 0  9996
2 69912  97.7479 154.4496 0001052 305.2426  54.8694 14.90937220  9962
MARINA
1 69920U 26156BD  26254.66792044  .00001782  00000-0  18056-3 0  9994
2 69920  97.7446 154.0320 0006137 302.2770  57.7854 14.92152354  9896
IO-86
1 40931U          26199.45381863  .00000000  00000-0  77536-4 0    07
2 40931   6.0006 322.6653 0012733 338.8432 273.6875 14.79294310    03
LILIUM-4                
1 71922C 26067AC  26089.50133053 -.00014632  00000+0 -74472-3 0    04
2 71922  97.4497  49.1617 0004341   5.9603 355.7042 15.16896692    16
